Location: Newark
(47.5008°N, 9.7480°E)
Time: 09:02:42
(UTC+00:00)

ISS - Pass Details

Date: 27 July 2019
Orbit: 410 x 420 km, 51.6° (Epoch: 21 August)

Event Time Altitude Azimuth Distance (km) Brightness Sun altitude
Rises 19:50:01 0° 284° (WNW) 2,373 1.4 -7.5°
Reaches altitude 10° 19:52:12 10° 292° (WNW) 1,507 0.5 -7.8°
Maximum altitude 19:55:25 39° 3° (N) 644 -2.5 -8.2°
Drops below altitude 10° 19:58:37 10° 75° (ENE) 1,501 -1.3 -8.6°
Enters shadow 20:00:07 - 81° (E) 2,094 -0.6 -8.8°
